TimeCDT,TemperatureF,Dew PointF,Humidity,Sea Level PressureIn,VisibilityMPH,Wind Direction,Wind SpeedMPH,Gust SpeedMPH,PrecipitationIn,Events,Conditions,WindDirDegrees,DateUTC
12:53 AM,73.0,64.9,76,30.04,10.0,SSE,8.1,-,N/A,,Clear,160,2013-08-24 05:53:00
1:53 AM,73.0,64.9,76,30.03,10.0,SSE,8.1,-,N/A,,Scattered Clouds,150,2013-08-24 06:53:00
2:53 AM,72.0,64.9,78,30.04,10.0,SSE,8.1,-,N/A,,Overcast,150,2013-08-24 07:53:00
3:53 AM,72.0,64.9,78,30.04,10.0,SSE,6.9,-,N/A,,Clear,150,2013-08-24 08:53:00
4:53 AM,72.0,64.9,78,30.05,10.0,SE,8.1,-,N/A,,Mostly Cloudy,140,2013-08-24 09:53:00
5:53 AM,72.0,64.0,76,30.05,10.0,SSE,9.2,-,N/A,,Mostly Cloudy,150,2013-08-24 10:53:00
6:53 AM,72.0,64.9,78,30.06,10.0,SSE,9.2,-,N/A,,Clear,160,2013-08-24 11:53:00
7:53 AM,73.9,64.9,73,30.05,10.0,SSE,8.1,-,N/A,,Clear,150,2013-08-24 12:53:00
8:53 AM,75.9,66.0,71,30.06,10.0,SSE,11.5,-,N/A,,Partly Cloudy,150,2013-08-24 13:53:00
9:53 AM,78.1,66.0,66,30.05,10.0,South,11.5,19.6,N/A,,Overcast,170,2013-08-24 14:53:00
10:53 AM,84.0,68.0,58,30.02,10.0,South,18.4,24.2,N/A,,Clear,170,2013-08-24 15:53:00
11:53 AM,87.1,69.1,55,29.99,10.0,South,16.1,25.3,N/A,,Clear,170,2013-08-24 16:53:00
12:53 PM,87.1,70.0,57,29.98,10.0,South,17.3,27.6,N/A,,Scattered Clouds,190,2013-08-24 17:53:00
1:53 PM,89.1,69.1,52,29.98,10.0,SSW,18.4,26.5,N/A,,Scattered Clouds,200,2013-08-24 18:53:00
2:53 PM,91.0,70.0,50,29.97,10.0,South,16.1,32.2,N/A,,Partly Cloudy,190,2013-08-24 19:53:00
3:53 PM,91.0,68.0,47,29.96,10.0,South,23.0,31.1,N/A,,Scattered Clouds,180,2013-08-24 20:53:00
4:53 PM,89.1,69.1,52,29.95,10.0,South,18.4,27.6,N/A,,Clear,180,2013-08-24 21:53:00
5:53 PM,87.1,68.0,53,29.93,10.0,South,19.6,32.2,N/A,,Clear,170,2013-08-24 22:53:00
6:53 PM,86.0,69.1,57,29.93,10.0,South,16.1,21.9,N/A,,Clear,180,2013-08-24 23:53:00
7:53 PM,84.0,71.1,65,29.93,10.0,South,10.4,21.9,N/A,,Clear,180,2013-08-25 00:53:00
8:53 PM,82.0,71.1,69,29.94,10.0,South,15.0,20.7,N/A,,Clear,180,2013-08-25 01:53:00
9:53 PM,82.0,71.1,69,29.94,10.0,South,9.2,-,N/A,,Clear,190,2013-08-25 02:53:00
10:53 PM,82.0,70.0,67,29.94,10.0,South,12.7,19.6,N/A,,Clear,190,2013-08-25 03:53:00
11:53 PM,82.0,69.1,65,29.94,10.0,South,12.7,21.9,N/A,,Clear,190,2013-08-25 04:53:00